Tracking 29892 objects as of 21-Nov-2024
HD Live streaming from Space Station
objects crossing your sky now

WEINA 1B

Track WEINA 1B now!
10-day predictions


NORAD ID: 43279
Int'l Code: 2018-034E
Perigee: 929.3 km
Apogee: 1,264.1 km
Inclination: 63.4 °
Period: 107.0 minutes
Semi major axis: 7467 km
RCS: Unknown
Launch date: April 10, 2018
Source: People's Republic of China (PRC)
Launch site: Jiuquan Satellite Launch Center, China (JSC)
Your satellite tracking list
Your tracking list is empty




NASA's NSSDC Master Catalog

Two Line Element Set (TLE):
1 43279U 18034E   24326.13843536 -.00000038  00000-0  76030-4 0  9993
2 43279  63.3964 125.5646 0224152   6.3081 354.0684 13.45302143325119
Source of the keplerian elements: AFSPC